Regional Weather Roundup
Issued by NWS New Orleans/Baton Rouge, LA

Home | Current Version | Previous Version | Graphics & Text | Print | Product List | Glossary On
Versions: 1 2 3 4 5 6 7 8 9 10 11 12 13 14 15 16 17 18 19 20 21 22 23 24 25 26 27 28 29 30 31 32 33 34 35 36 37 38 39 40 41 42 43 44 45 46 47 48 49 50
482
ASUS44 KLIX 012010
RWRLIX
NEW ORLEANS REGIONAL WEATHER ROUNDUP
NATIONAL WEATHER SERVICE NEW ORLEANS LA
200 PM CST SUN MAR 01 2015

NOTE: "FAIR" INDICATES FEW OR NO CLOUDS BELOW 12,000 FEET WITH NO
      SIGNIFICANT WEATHER AND/OR OBSTRUCTIONS TO VISIBILITY.
      SKY/WX - SKY CONDITION AND SIGNIFICANT WEATHER.
      TMP - AIR TEMPERATURE.     DP    - DEWPOINT TEMPERATURE.
      RH  - RELATIVE HUMIDITY.   PRES  - PRESSURE.
      HI  - HEAT INDEX.          WCI   - WIND CHILL INDEX.

*  THESE STATIONS ARE NOT NWS OR FAA STATIONS AND ARE NOT UNDER
   NWS QUALITY CONTROL.

LAZ038-040-048-061>063-065>067-069-012100-
SOUTHEAST LOUISIANA

CITY           SKY/WX    TMP DP  RH WIND       PRES   REMARKS
N.O. AUDUBON     N/A     67  66  98 MISG        N/A
N.O. INTL ARPT CLOUDY    65  59  81 E6        30.26F HAZE
N.O. LAKEFRONT CLOUDY    61  56  83 E9        30.28S HAZE
SLIDELL        CLOUDY    64  60  87 VRB6      30.27F
BATON ROUGE    LGT RAIN  63  60  90 E9        30.25F FOG
BOOTHVILLE     CLOUDY    67  65  93 E6        30.26F FOG
BELLE CHASSE   CLOUDY    67  63  87 E7        30.26F FOG
BOGALUSA*        N/A     66  58  76 SE5       30.29F
GALLIANO*      MOCLDY    73  65  78 E7        30.24F
NEW ROADS*     LGT RAIN  65  62  90 E6        30.24F
GONZALES*      CLOUDY    63  62  97 NE6       30.25F
HAMMOND*       CLOUDY    68  61  77 SE7       30.28S
HOUMA*         PTSUNNY   75  66  73 SE15      30.24F
PORT FOURCHON* CLEAR     70  66  88 SE12G18   30.26F FOG

$$

MSZ070-080>082-012100-
SOUTHERN MISSISSIPPI

CITY           SKY/WX    TMP DP  RH WIND       PRES   REMARKS
MCCOMB         CLOUDY    63  59  87 S6        30.27F
GULFPORT       CLOUDY    61  58  90 E7        30.28F FOG
BILOXI         CLOUDY    59  59 100 E8        30.28F
PASCAGOULA     CLOUDY    59  56  89 E6        30.30F FOG
STENNIS ARPT*  CLOUDY    61  54  77 SE8       30.29F

$$

COASTAL OBSERVATIONS
LAKE AND NEARSHORE STATIONS

STATION/POSITION TIME  TEMP    WIND        PRES    WAVE
                       AIR SEA DIR/SP/G            HT/PER
                 (UTC) (F)     (DEG/KT/KT) (MB)    (FT/S)
PASCAGOULA       2000   57      70/ 10/ 12 1025.5
WAVELAND YACHT   2000   57 53  110/ 12/ 16 1025.0
GRAND ISLE       2000   67 58   90/  4/ 10 1024.6
SOUTHWEST PASS   2000   68 48  100/ 15/ 16 1024.4
NEW CANAL        2000   58      80/  8/  9 1025.2
SHELL BEACH      2000   60 54   90/ 10/ 11 1024.7

OFFSHORE STATIONS

STATION/POSITION TIME  TEMP    WIND        PRES    WAVE
                       AIR SEA DIR/SP/G            HT/PER
                 (UTC) (F)     (DEG/KT/KT) (MB)    (FT/S)
64 S DAUPHIN ISL 1851   69 71  120/ 12/ 14 1025.3    5/ 7

$$




USA.gov is the U.S. government's official web portal to all federal, state and local government web resources and services.